Time,TemperatureF,DewpointF,PressureIn,WindDirection,WindDirectionDegrees,WindSpeedMPH,WindSpeedGustMPH,Humidity,HourlyPrecipIn,Conditions,Clouds,dailyrainin,SoftwareType,DateUTC
2013-03-08 00:00:00,34.6,24.3,30.22,North,0,0.0,0.0,66,0.00,,,0.00,WUHU216HW,2013-03-08 05:00:00,
2013-03-08 00:01:00,34.6,24.3,30.22,North,0,0.0,0.0,66,0.00,,,0.00,WUHU216HW,2013-03-08 05:01:00,
2013-03-08 00:06:00,34.6,24.3,30.22,North,0,0.0,0.0,66,0.00,,,0.00,WUHU216HW,2013-03-08 05:06:00,
2013-03-08 00:30:00,33.7,23.0,30.22,North,0,0.0,0.0,65,0.00,,,0.00,WUHU216HW,2013-03-08 05:30:00,
2013-03-08 00:35:00,33.7,23.0,30.22,North,0,0.0,0.0,65,0.00,,,0.00,WUHU216HW,2013-03-08 05:35:00,
2013-03-08 01:00:00,32.8,23.0,30.22,North,0,0.0,0.0,67,0.00,,,0.00,WUHU216HW,2013-03-08 06:00:00,
2013-03-08 01:05:00,32.8,23.0,30.22,North,0,0.0,0.0,67,0.00,,,0.00,WUHU216HW,2013-03-08 06:05:00,
2013-03-08 01:30:00,33.5,23.6,30.21,North,0,0.0,0.0,67,0.00,,,0.00,WUHU216HW,2013-03-08 06:30:00,
2013-03-08 01:35:00,33.5,23.6,30.21,North,0,0.0,0.0,67,0.00,,,0.00,WUHU216HW,2013-03-08 06:35:00,
2013-03-08 02:00:00,33.5,23.6,30.21,North,0,0.0,0.0,67,0.00,,,0.00,WUHU216HW,2013-03-08 07:00:00,
2013-03-08 02:05:00,33.5,23.6,30.21,North,0,0.0,0.0,67,0.00,,,0.00,WUHU216HW,2013-03-08 07:05:00,
2013-03-08 02:30:00,32.8,23.0,30.20,North,0,0.0,0.0,67,0.00,,,0.00,WUHU216HW,2013-03-08 07:30:00,
2013-03-08 02:35:00,32.8,23.0,30.20,North,0,0.0,0.0,67,0.00,,,0.00,WUHU216HW,2013-03-08 07:35:00,
2013-03-08 03:00:00,33.1,23.7,30.19,North,0,0.0,0.0,68,0.00,,,0.00,WUHU216HW,2013-03-08 08:00:00,
2013-03-08 03:05:00,33.1,23.7,30.19,North,0,0.0,0.0,68,0.00,,,0.00,WUHU216HW,2013-03-08 08:05:00,
2013-03-08 03:30:00,32.8,23.0,30.19,North,0,0.0,0.0,67,0.00,,,0.00,WUHU216HW,2013-03-08 08:30:00,
2013-03-08 03:35:00,32.8,23.0,30.19,North,0,0.0,0.0,67,0.00,,,0.00,WUHU216HW,2013-03-08 08:35:00,
2013-03-08 04:00:00,32.6,22.8,30.19,North,0,0.0,0.0,67,0.00,,,0.00,WUHU216HW,2013-03-08 09:00:00,
2013-03-08 04:05:00,32.6,22.8,30.19,North,0,0.0,0.0,67,0.00,,,0.00,WUHU216HW,2013-03-08 09:05:00,
2013-03-08 04:30:00,32.0,22.7,30.19,North,0,0.0,0.0,68,0.00,,,0.00,WUHU216HW,2013-03-08 09:30:00,
2013-03-08 04:35:00,32.0,22.7,30.19,North,0,0.0,0.0,68,0.00,,,0.00,WUHU216HW,2013-03-08 09:35:00,
2013-03-08 05:00:00,31.5,21.4,30.19,North,0,0.0,0.0,66,0.00,,,0.00,WUHU216HW,2013-03-08 10:00:00,
2013-03-08 05:05:00,31.5,21.4,30.19,North,0,0.0,0.0,66,0.00,,,0.00,WUHU216HW,2013-03-08 10:05:00,
2013-03-08 05:30:00,30.6,20.5,30.20,North,0,0.0,0.0,66,0.00,,,0.00,WUHU216HW,2013-03-08 10:30:00,
2013-03-08 05:35:00,30.6,20.5,30.20,North,0,0.0,0.0,66,0.00,,,0.00,WUHU216HW,2013-03-08 10:35:00,
2013-03-08 06:00:00,30.6,20.2,30.21,North,0,0.0,0.0,65,0.00,,,0.00,WUHU216HW,2013-03-08 11:00:00,
2013-03-08 06:05:00,30.6,20.2,30.21,North,0,0.0,0.0,65,0.00,,,0.00,WUHU216HW,2013-03-08 11:05:00,
2013-03-08 06:30:00,32.0,21.2,30.23,North,0,0.0,0.0,64,0.00,,,0.00,WUHU216HW,2013-03-08 11:30:00,
2013-03-08 06:35:00,32.0,21.2,30.23,North,0,0.0,0.0,64,0.00,,,0.00,WUHU216HW,2013-03-08 11:35:00,
2013-03-08 07:00:00,32.4,22.0,30.22,North,0,0.0,0.0,65,0.00,,,0.00,WUHU216HW,2013-03-08 12:00:00,
2013-03-08 07:05:00,32.4,22.0,30.22,North,0,0.0,0.0,65,0.00,,,0.00,WUHU216HW,2013-03-08 12:05:00,
2013-03-08 07:30:00,33.5,22.9,30.23,North,0,0.0,0.0,65,0.00,,,0.00,WUHU216HW,2013-03-08 12:30:00,
2013-03-08 07:35:00,33.5,22.9,30.23,North,0,0.0,0.0,65,0.00,,,0.00,WUHU216HW,2013-03-08 12:35:00,
2013-03-08 08:00:00,35.6,24.7,30.23,North,0,0.0,0.0,64,0.00,,,0.00,WUHU216HW,2013-03-08 13:00:00,
2013-03-08 08:05:00,35.6,24.7,30.23,North,0,0.0,0.0,64,0.00,,,0.00,WUHU216HW,2013-03-08 13:05:00,
2013-03-08 08:30:00,38.2,27.0,30.25,North,0,0.0,0.0,64,0.00,,,0.00,WUHU216HW,2013-03-08 13:30:00,
2013-03-08 08:35:00,38.2,27.0,30.25,North,0,0.0,0.0,64,0.00,,,0.00,WUHU216HW,2013-03-08 13:35:00,
2013-03-08 09:00:00,40.3,27.5,30.24,North,0,0.0,0.0,60,0.00,,,0.00,WUHU216HW,2013-03-08 14:00:00,
2013-03-08 09:05:00,40.3,27.5,30.24,North,0,0.0,0.0,60,0.00,,,0.00,WUHU216HW,2013-03-08 14:05:00,
2013-03-08 09:30:00,42.1,26.2,30.24,North,0,0.0,0.0,53,0.00,,,0.00,WUHU216HW,2013-03-08 14:30:00,
2013-03-08 09:35:00,42.1,26.2,30.24,North,0,0.0,0.0,53,0.00,,,0.00,WUHU216HW,2013-03-08 14:35:00,
2013-03-08 10:00:00,43.6,26.2,30.25,North,0,0.0,0.0,50,0.00,,,0.00,WUHU216HW,2013-03-08 15:00:00,
2013-03-08 10:05:00,43.6,26.2,30.25,North,0,0.0,0.0,50,0.00,,,0.00,WUHU216HW,2013-03-08 15:05:00,
2013-03-08 10:30:00,44.6,26.1,30.24,North,0,0.0,0.0,48,0.00,,,0.00,WUHU216HW,2013-03-08 15:30:00,
2013-03-08 10:35:00,44.6,26.1,30.24,North,0,0.0,0.0,48,0.00,,,0.00,WUHU216HW,2013-03-08 15:35:00,
2013-03-08 11:00:00,45.9,25.7,30.23,North,0,0.0,0.0,45,0.00,,,0.00,WUHU216HW,2013-03-08 16:00:00,
2013-03-08 11:05:00,45.9,25.7,30.23,North,0,0.0,0.0,45,0.00,,,0.00,WUHU216HW,2013-03-08 16:05:00,
2013-03-08 11:30:00,46.8,25.4,30.22,North,0,0.0,0.0,43,0.00,,,0.00,WUHU216HW,2013-03-08 16:30:00,
2013-03-08 11:35:00,46.8,25.4,30.22,North,0,0.0,0.0,43,0.00,,,0.00,WUHU216HW,2013-03-08 16:35:00,
2013-03-08 12:00:00,48.4,25.8,30.21,North,0,0.0,0.0,41,0.00,,,0.00,WUHU216HW,2013-03-08 17:00:00,
2013-03-08 12:05:00,48.4,25.8,30.21,North,0,0.0,0.0,41,0.00,,,0.00,WUHU216HW,2013-03-08 17:05:00,
2013-03-08 12:30:00,49.0,25.0,30.20,North,0,0.0,0.0,39,0.00,,,0.00,WUHU216HW,2013-03-08 17:30:00,
2013-03-08 12:35:00,49.0,25.0,30.20,North,0,0.0,0.0,39,0.00,,,0.00,WUHU216HW,2013-03-08 17:35:00,
2013-03-08 13:00:00,49.9,25.8,30.19,North,0,0.0,0.0,39,0.00,,,0.00,WUHU216HW,2013-03-08 18:00:00,
2013-03-08 13:05:00,49.9,25.8,30.19,North,0,0.0,0.0,39,0.00,,,0.00,WUHU216HW,2013-03-08 18:05:00,
2013-03-08 13:30:00,51.5,25.2,30.17,North,0,0.0,0.0,36,0.00,,,0.00,WUHU216HW,2013-03-08 18:30:00,
2013-03-08 13:35:00,51.5,25.2,30.17,North,0,0.0,0.0,36,0.00,,,0.00,WUHU216HW,2013-03-08 18:35:00,
2013-03-08 14:00:00,52.2,26.6,30.16,North,0,0.0,0.0,37,0.00,,,0.00,WUHU216HW,2013-03-08 19:00:00,
2013-03-08 14:05:00,52.2,26.6,30.16,North,0,0.0,0.0,37,0.00,,,0.00,WUHU216HW,2013-03-08 19:05:00,
2013-03-08 14:30:00,53.1,27.4,30.15,North,0,0.0,0.0,37,0.00,,,0.00,WUHU216HW,2013-03-08 19:30:00,
2013-03-08 14:35:00,53.1,27.4,30.15,North,0,0.0,0.0,37,0.00,,,0.00,WUHU216HW,2013-03-08 19:35:00,
2013-03-08 15:00:00,53.1,26.0,30.14,North,0,0.0,0.0,35,0.00,,,0.00,WUHU216HW,2013-03-08 20:00:00,
2013-03-08 15:05:00,53.1,26.0,30.14,North,0,0.0,0.0,35,0.00,,,0.00,WUHU216HW,2013-03-08 20:05:00,
2013-03-08 15:30:00,52.9,25.1,30.15,North,0,0.0,0.0,34,0.00,,,0.00,WUHU216HW,2013-03-08 20:30:00,
2013-03-08 15:35:00,52.9,25.1,30.15,North,0,0.0,0.0,34,0.00,,,0.00,WUHU216HW,2013-03-08 20:35:00,
2013-03-08 16:00:00,53.6,25.7,30.16,North,0,0.0,0.0,34,0.00,,,0.00,WUHU216HW,2013-03-08 21:00:00,
2013-03-08 16:05:00,53.6,25.7,30.16,North,0,0.0,0.0,34,0.00,,,0.00,WUHU216HW,2013-03-08 21:05:00,
2013-03-08 16:30:00,53.6,25.1,30.16,North,0,0.0,0.0,33,0.00,,,0.00,WUHU216HW,2013-03-08 21:30:00,
2013-03-08 16:35:00,53.6,25.1,30.16,North,0,0.0,0.0,33,0.00,,,0.00,WUHU216HW,2013-03-08 21:35:00,
2013-03-08 17:00:00,53.6,25.7,30.17,North,0,0.0,0.0,34,0.00,,,0.00,WUHU216HW,2013-03-08 22:00:00,
2013-03-08 17:05:00,53.6,25.7,30.17,North,0,0.0,0.0,34,0.00,,,0.00,WUHU216HW,2013-03-08 22:05:00,
2013-03-08 17:30:00,55.6,26.0,30.18,North,0,0.0,0.0,32,0.00,,,0.00,WUHU216HW,2013-03-08 22:30:00,
2013-03-08 17:35:00,55.6,26.0,30.18,North,0,0.0,0.0,32,0.00,,,0.00,WUHU216HW,2013-03-08 22:35:00,
2013-03-08 18:00:00,52.2,26.6,30.19,North,0,0.0,0.0,37,0.00,,,0.00,WUHU216HW,2013-03-08 23:00:00,
2013-03-08 18:05:00,52.2,26.6,30.19,North,0,0.0,0.0,37,0.00,,,0.00,WUHU216HW,2013-03-08 23:05:00,
2013-03-08 19:00:00,49.3,24.7,30.20,North,0,0.0,0.0,38,0.00,,,0.00,WUHU216HW,2013-03-09 00:00:00,
2013-03-08 19:05:00,49.3,25.3,30.20,North,0,0.0,0.0,39,0.00,,,0.00,WUHU216HW,2013-03-09 00:05:00,
2013-03-08 19:30:00,48.1,25.4,30.21,North,0,0.0,0.0,41,0.00,,,0.00,WUHU216HW,2013-03-09 00:30:00,
2013-03-08 19:35:00,48.1,25.4,30.21,North,0,0.0,0.0,41,0.00,,,0.00,WUHU216HW,2013-03-09 00:35:00,
2013-03-08 20:00:00,47.2,25.7,30.22,North,0,0.0,0.0,43,0.00,,,0.00,WUHU216HW,2013-03-09 01:00:00,
2013-03-08 20:05:00,47.2,25.7,30.22,North,0,0.0,0.0,43,0.00,,,0.00,WUHU216HW,2013-03-09 01:05:00,
2013-03-08 20:30:00,46.6,26.3,30.22,North,0,0.0,0.0,45,0.00,,,0.00,WUHU216HW,2013-03-09 01:30:00,
2013-03-08 20:35:00,46.6,26.3,30.22,North,0,0.0,0.0,45,0.00,,,0.00,WUHU216HW,2013-03-09 01:35:00,
2013-03-08 21:00:00,46.1,26.3,30.23,North,0,0.0,0.0,46,0.00,,,0.00,WUHU216HW,2013-03-09 02:00:00,
2013-03-08 21:05:00,46.1,26.3,30.23,North,0,0.0,0.0,46,0.00,,,0.00,WUHU216HW,2013-03-09 02:05:00,
2013-03-08 21:30:00,45.2,26.6,30.25,North,0,0.0,0.0,48,0.00,,,0.00,WUHU216HW,2013-03-09 02:30:00,
2013-03-08 21:35:00,45.2,26.6,30.25,North,0,0.0,0.0,48,0.00,,,0.00,WUHU216HW,2013-03-09 02:35:00,
2013-03-08 22:00:00,44.3,26.8,30.26,North,0,0.0,0.0,50,0.00,,,0.00,WUHU216HW,2013-03-09 03:00:00,
2013-03-08 22:05:00,44.3,26.8,30.26,North,0,0.0,0.0,50,0.00,,,0.00,WUHU216HW,2013-03-09 03:05:00,
2013-03-08 22:30:00,43.4,26.5,30.27,North,0,0.0,0.0,51,0.00,,,0.00,WUHU216HW,2013-03-09 03:30:00,
2013-03-08 22:35:00,43.4,26.5,30.27,North,0,0.0,0.0,51,0.00,,,0.00,WUHU216HW,2013-03-09 03:35:00,
2013-03-08 23:00:00,42.1,25.8,30.28,North,0,0.0,0.0,52,0.00,,,0.00,WUHU216HW,2013-03-09 04:00:00,
2013-03-08 23:05:00,42.1,25.8,30.28,North,0,0.0,0.0,52,0.00,,,0.00,WUHU216HW,2013-03-09 04:05:00,
2013-03-08 23:30:00,41.8,25.8,30.28,North,0,0.0,0.0,53,0.00,,,0.00,WUHU216HW,2013-03-09 04:30:00,
2013-03-08 23:35:00,41.8,25.8,30.28,North,0,0.0,0.0,53,0.00,,,0.00,WUHU216HW,2013-03-09 04:35:00,